Date String (YYYY-MM-DD hh:mm:ss) UTC,Instrument flags,absolute air pressure of the measurement (hPa),sample flow rate (lpm),inlet stack bypass flow (lpm),air temperature of the measurement (°C),ambient temperature measured by the external sensor (°C),aerosol sample conditioner tube jacket temperature (°C),OPC LED temperature (°C),internal box temperature (°C),relative humidity of the measurement (%),span deviation,mass concentration of particles derived from Lorenz-Mie calculation of OPC scattering (μg/m³),mass concentration of particles derived from Lorenz-Mie calculation of OPC scattering (μg/m³),mass concentration of particles derived from Lorenz-Mie calculation of OPC scattering (μg/m³)
DateTimeUTC,F1_M11,P_M11,Q1_M11,Q2_M11,T1_M11,T2_M11,T3_M11,T4_M11,T5_M11,U1_M11,ZSPAN_M11,X0_M11,X2_M11,X1_M11
2023-06-17 01:00:00,SystemResetWarning,0833.8,5.00,000.00,030.2,028.7,000.0,038.8,031.8,28.9,0000.0,0003.33,0001.77,0001.46
2023-06-17 01:01:00,SystemResetWarning,0833.7,5.00,000.00,030.2,028.7,000.0,038.8,031.7,28.8,0000.0,0003.36,0001.77,0001.45
2023-06-17 01:02:00,SystemResetWarning,0833.7,4.99,000.00,030.2,028.7,000.0,038.8,031.8,28.6,0000.0,0002.99,0001.73,0001.44
2023-06-17 01:03:00,SystemResetWarning,0833.7,5.00,000.00,030.3,028.7,000.0,038.8,031.7,28.5,0000.0,0002.34,0001.68,0001.41
2023-06-17 01:04:00,SystemResetWarning,0833.7,5.00,000.00,030.3,028.7,000.0,038.8,031.7,28.4,0000.0,0002.33,0001.66,0001.40
2023-06-17 01:05:00,SystemResetWarning,0833.7,5.00,000.00,030.3,028.7,000.0,038.8,031.8,28.5,0000.0,0002.25,0001.62,0001.38
2023-06-17 01:06:00,SystemResetWarning,0833.7,5.00,000.00,030.3,028.8,000.0,038.8,031.8,28.4,0000.0,0002.17,0001.57,0001.35
2023-06-17 01:07:00,SystemResetWarning,0833.7,5.00,000.00,030.3,028.8,000.0,038.8,031.9,28.3,0000.0,0002.08,0001.52,0001.34
2023-06-17 01:08:00,SystemResetWarning,0833.7,5.00,000.00,030.3,028.8,000.0,038.9,031.9,28.3,0000.0,0002.18,0001.49,0001.32
2023-06-17 01:09:00,SystemResetWarning,0833.7,5.00,000.00,030.3,028.8,000.0,038.9,031.9,28.4,0000.0,0002.16,0001.48,0001.30
2023-06-17 01:10:00,SystemResetWarning,0833.7,5.00,000.00,030.4,028.8,000.0,038.9,031.9,28.6,0000.0,0002.43,0001.46,0001.28
2023-06-17 01:11:00,SystemResetWarning,0833.7,5.00,000.00,030.4,028.8,000.0,038.9,031.9,28.5,0000.0,0002.47,0001.46,0001.28
2023-06-17 01:12:00,SystemResetWarning,0833.7,5.00,000.00,030.4,028.8,000.0,038.9,031.9,28.5,0000.0,0002.35,0001.41,0001.27
2023-06-17 01:13:00,SystemResetWarning,0833.7,5.00,000.00,030.4,028.8,000.0,038.9,031.9,28.5,0000.0,0002.34,0001.39,0001.26
2023-06-17 01:14:00,SystemResetWarning,0833.7,5.00,000.00,030.4,028.9,000.0,038.9,031.9,28.6,0000.0,0002.43,0001.38,0001.26
2023-06-17 01:15:00,SystemResetWarning,0833.7,5.00,000.00,030.4,028.9,000.0,038.9,031.9,28.7,0000.0,0002.56,0001.41,0001.26
2023-06-17 01:16:00,SystemResetWarning,0833.7,5.00,000.00,030.4,028.9,000.0,039.0,032.0,28.7,0000.0,0002.61,0001.43,0001.28
2023-06-17 01:17:00,SystemResetWarning,0833.7,5.00,000.00,030.4,028.9,000.0,039.0,032.0,28.6,0000.0,0002.65,0001.46,0001.29
2023-06-17 01:18:00,SystemResetWarning,0833.7,5.00,000.00,030.4,028.9,000.0,039.0,032.0,28.6,0000.0,0002.69,0001.51,0001.31
2023-06-17 01:19:00,SystemResetWarning,0833.7,5.00,000.00,030.5,028.9,000.0,039.0,032.0,28.6,0000.0,0002.69,0001.55,0001.33
2023-06-17 01:20:00,SystemResetWarning,0833.7,4.99,000.00,030.5,028.9,000.0,039.0,032.0,28.5,0000.0,0002.63,0001.57,0001.34
2023-06-17 01:21:00,SystemResetWarning,0833.7,5.00,000.00,030.5,028.9,000.0,039.0,031.9,28.5,0000.0,0002.41,0001.58,0001.36
2023-06-17 01:22:00,SystemResetWarning,0833.7,5.00,000.00,030.5,028.9,000.0,039.0,032.0,28.5,0000.0,0002.29,0001.59,0001.36
2023-06-17 01:23:00,SystemResetWarning,0833.7,5.00,000.00,030.5,028.9,000.0,039.0,032.0,28.6,0000.0,0002.57,0001.64,0001.37
2023-06-17 01:24:00,SystemResetWarning,0833.7,5.01,000.00,030.5,028.9,000.0,039.0,032.0,28.5,0000.0,0002.71,0001.68,0001.39
2023-06-17 01:25:00,SystemResetWarning,0833.7,5.00,000.00,030.5,029.0,000.0,039.0,032.0,28.6,0000.0,0002.62,0001.69,0001.40
2023-06-17 01:26:00,SystemResetWarning,0833.7,5.00,000.00,030.5,029.0,000.0,039.0,032.0,28.6,0000.0,0002.59,0001.72,0001.42
2023-06-17 01:27:00,SystemResetWarning,0833.7,5.00,000.00,030.5,029.0,000.0,039.1,032.0,28.6,0000.0,0002.63,0001.77,0001.45
2023-06-17 01:28:00,SystemResetWarning,0833.7,5.00,000.00,030.5,029.0,000.0,039.1,032.0,28.6,0000.0,0002.67,0001.80,0001.47
2023-06-17 01:29:00,SystemResetWarning,0833.7,5.00,000.00,030.6,029.0,000.0,039.1,032.0,28.8,0000.0,0002.67,0001.80,0001.48
2023-06-17 01:30:00,SystemResetWarning,0833.6,5.00,000.00,030.6,029.0,000.0,039.1,032.0,28.8,0000.0,0002.64,0001.79,0001.50
2023-06-17 01:31:00,SystemResetWarning,0833.6,4.99,000.00,030.6,029.0,000.0,039.1,032.1,28.8,0000.0,0003.38,0001.80,0001.53
2023-06-17 01:32:00,SystemResetWarning,0833.7,5.00,000.00,030.6,029.0,000.0,039.1,032.1,28.8,0000.0,0005.47,0001.83,0001.56
2023-06-17 01:33:00,SystemResetWarning,0833.7,5.00,000.00,030.6,029.0,000.0,039.1,032.1,28.8,0000.0,0005.57,0001.89,0001.61
2023-06-17 01:34:00,SystemResetWarning,0833.7,5.00,000.00,030.6,029.0,000.0,039.1,032.0,28.8,0000.0,0005.52,0001.94,0001.64
2023-06-17 01:35:00,SystemResetWarning,0833.7,5.00,000.00,030.6,029.1,000.0,039.1,032.1,28.8,0000.0,0005.47,0001.96,0001.67
2023-06-17 01:36:00,SystemResetWarning,0833.7,5.00,000.00,030.6,029.0,000.0,039.2,032.1,28.9,0000.0,0005.70,0002.00,0001.69
2023-06-17 01:37:00,SystemResetWarning,0833.7,5.00,000.00,030.6,027.0,000.0,039.1,032.1,28.8,0000.0,0005.73,0002.01,0001.71
2023-06-17 01:38:00,SystemResetWarning,0833.7,5.00,000.00,030.6,025.3,000.0,039.0,031.9,28.8,0000.0,0005.72,0002.00,0001.72
2023-06-17 01:39:00,SystemResetWarning,0833.7,5.00,000.00,030.5,025.0,000.0,039.0,031.7,28.8,0000.0,0005.83,0002.03,0001.73
2023-06-17 01:40:00,SystemResetWarning,0833.7,5.01,000.00,030.3,025.3,000.0,038.9,031.4,29.1,0000.0,0007.01,0002.04,0001.75
2023-06-17 01:41:00,SystemResetWarning,0833.7,5.01,000.00,030.3,025.8,000.0,038.9,031.4,29.2,0000.0,0007.07,0002.06,0001.75
2023-06-17 01:42:00,SystemResetWarning,0833.7,4.98,000.00,030.2,026.2,000.0,038.9,031.4,29.3,0000.0,0006.62,0002.08,0001.75
2023-06-17 01:43:00,SystemResetWarning,0833.7,5.00,000.00,030.2,026.6,000.0,038.9,031.4,29.4,0000.0,0004.78,0002.10,0001.74
2023-06-17 01:44:00,SystemResetWarning,0833.7,5.02,000.00,030.1,027.0,000.0,038.8,031.4,29.5,0000.0,0004.43,0002.10,0001.73
2023-06-17 01:45:00,SystemResetWarning,0833.8,4.99,000.00,030.1,027.3,000.0,038.8,031.5,29.5,0000.0,0004.42,0002.06,0001.71
2023-06-17 01:46:00,SystemResetWarning,0833.8,4.99,000.00,030.1,027.5,000.0,038.8,031.5,29.5,0000.0,0004.37,0002.04,0001.70
2023-06-17 01:47:00,SystemResetWarning,0833.8,5.01,000.00,030.1,027.7,000.0,038.8,031.5,29.4,0000.0,0004.16,0002.01,0001.67
2023-06-17 01:48:00,SystemResetWarning,0833.8,5.00,000.00,030.1,027.9,000.0,038.8,031.5,29.4,0000.0,0004.07,0001.99,0001.66
2023-06-17 01:49:00,SystemResetWarning,0833.8,5.00,000.00,030.1,028.0,000.0,038.8,031.5,29.4,0000.0,0004.03,0001.97,0001.65
2023-06-17 01:50:00,SystemResetWarning,0833.8,5.00,000.00,030.1,028.1,000.0,038.7,031.5,29.4,0000.0,0004.01,0001.95,0001.64
2023-06-17 01:51:00,SystemResetWarning,0833.8,5.00,000.00,030.1,028.2,000.0,038.7,031.5,29.4,0000.0,0003.32,0001.95,0001.62
2023-06-17 01:52:00,SystemResetWarning,0833.8,5.00,000.00,030.1,028.2,000.0,038.7,031.6,29.4,0000.0,0002.98,0001.93,0001.62
2023-06-17 01:53:00,SystemResetWarning,0833.8,5.00,000.00,030.1,028.3,000.0,038.7,031.6,29.5,0000.0,0003.48,0001.89,0001.61
2023-06-17 01:54:00,SystemResetWarning,0833.9,5.00,000.00,030.1,028.4,000.0,038.7,031.6,29.4,0000.0,0003.38,0001.84,0001.59
2023-06-17 01:55:00,SystemResetWarning,0833.9,5.00,000.00,030.1,028.4,000.0,038.7,031.6,29.3,0000.0,0004.29,0001.87,0001.59
2023-06-17 01:56:00,SystemResetWarning,0833.9,5.00,000.00,030.1,028.5,000.0,038.7,031.6,29.4,0000.0,0004.21,0001.83,0001.58
2023-06-17 01:57:00,SystemResetWarning,0834.0,5.00,000.00,030.2,028.5,000.0,038.7,031.6,29.3,0000.0,0004.33,0001.84,0001.58
2023-06-17 01:58:00,SystemResetWarning,0833.9,5.00,000.00,030.2,028.5,000.0,038.8,031.7,29.3,0000.0,0004.40,0001.85,0001.58
2023-06-17 01:59:00,SystemResetWarning,0833.8,5.00,000.00,030.2,028.5,000.0,038.8,031.7,29.3,0000.0,0004.63,0001.88,0001.59
